User: anonymous   Login
Location: Lawrence
(38.9720°N, 95.2350°W)
Time: 17:50:29
(UTC-06:00)
Language:

ALOS - Orbit

View from above orbital plane
View from above orbital plane
View from above satellite
View from above satellite

Ground track
Ground track

The orbit data is extracted from the following two-line orbital elements,

1 28931U 06002A   17349.79875139  .00000134  00000-0  35019-4 0  9994
2 28931  97.8302   7.9403 0002524  88.8180 271.3301 14.62435778634000
Epoch (UTC): 15 December 2017 19:10:12
Eccentricity: 0.0002524
inclination: 97.8302°
perigee height: 683 km
apogee height: 687 km
right ascension of ascending node: 7.9403°
argument of perigee: 88.8180°
revolutions per day: 14.62435778
mean anomaly at epoch: 271.3301°
orbit number at epoch: 63400

The dashed part of the orbit path shows where the satellite is in the earth's shadow,  

DLR